Location: Bowman Observatory
(41.0326°N, 73.6210°W)
Time: 01:24:18
(UTC-04:00)

Cosmos 2298 Rocket - Visible Passes

Search period start: 04 August 2015 00:00
Search period end: 14 August 2015 00:00
Orbit: 777 x 783 km, 74.0° (Epoch: 02 August)

Date Brightness Start Highest point End Pass type
(mag) Time Alt. Az. Time Alt. Az. Time Alt. Az.
04 Aug 4.3 21:34:31 10° N 21:39:43 54° ENE 21:42:33 26° SE visible
04 Aug 6.0 23:18:03 10° NW 23:21:39 18° W 23:23:05 16° WSW visible
05 Aug 4.9 21:01:23 10° N 21:06:12 35° ENE 21:10:00 15° ESE visible
05 Aug 5.5 22:43:55 10° NW 22:48:27 29° W 22:50:33 22° SW visible
06 Aug 4.8 22:10:09 10° NNW 22:15:12 45° WSW 22:18:03 24° SSW visible
07 Aug 4.2 21:36:36 10° NNW 21:41:55 73° WSW 21:45:36 20° S visible
08 Aug 4.0 21:03:13 10° NNW 21:08:32 72° ENE 21:13:12 13° SSE visible
08 Aug 6.5 22:47:42 10° WNW 22:50:18 13° W 22:52:36 10° WSW visible
09 Aug 4.5 20:30:00 10° N 20:35:05 45° ENE 20:40:09 10° SE visible
09 Aug 6.1 22:13:06 10° NW 22:17:07 22° W 22:21:00 10° SW visible
10 Aug 5.4 21:39:09 10° NW 21:43:55 34° WSW 21:48:36 10° SSW visible
11 Aug 4.7 21:05:28 10° NNW 21:10:38 55° WSW 21:15:47 10° S visible
12 Aug 4.1 20:31:59 10° NNW 20:37:19 87° WSW 20:42:37 10° SSE visible
13 Aug 6.6 21:42:29 10° WNW 21:45:47 16° W 21:48:52 10° SW visible
